Flag for Germany Weather past 2 weeks in Strausberg, Brandenburg, Germany

Now
63 °F

Partly sunny.


Feels Like: 63 °F
Forecast: 50 / 56 °F
Wind: 10 mph from West

Location: Berlin-Schoenefeld

Current Time: Sep 21, 2014 at 11:10:52 AM

Latest Report: Sep 21, 2014 at 10:20 AM


Visibility: 4 mi

Pressure: 29.86 "Hg

Humidity: 94%

Dew point: 61 °F

Location of StrausbergLocation

Historic Weather in Strausberg — Graph

°F

Strausberg temperature yesterday

Maximum temperature yesterday: 66 °F (at 3:20 PM)
Minimum temperature yesterday: 55 °F (at 5:50 AM)
Average temperature yesterday: 60 °F

Past Weeks' High & Low Weather Summary

 TemperatureHumidityPressure
High81 °F (Sep 7, 3:20 PM)100% (Sep 7, 8:20 AM)30.15 "Hg (Sep 7, 8:20 AM)
Low50 °F (Sep 11, 2:20 AM)41% (Sep 18, 4:20 PM)29.83 "Hg (Sep 21, 6:50 AM)
Average63 °F80%30.01 "Hg
* Reported Sep 6 9:20 AM — Sep 21 9:50 AM, Strausberg, Weather by CustomWeather, © 2014

Note: Actual official high and low records may vary slightly from our data, if they occured in-between our weather recording intervals... More about our weather records

Advertising

Strausberg weather history for previous 24 hours

 ConditionsComfort  
Time TempWeatherWind HumidityBarometerVisibility
9:50 AM
Sep 21
63 °FPartly sunny.8 mph94%29.86 "Hg4 mi
9:20 AM63 °FFog.7 mph94%29.86 "Hg3 mi
8:50 AM61 °FFog.7 mph94%29.86 "Hg2 mi
8:20 AM61 °FFog.7 mph94%29.86 "Hg2 mi
7:50 AM61 °FFog.9 mph94%29.86 "Hg2 mi
7:20 AM61 °FFog.7 mph100%29.86 "Hg2 mi
6:50 AM61 °FFog.6 mph100%29.83 "Hg1 mi
6:20 AM61 °FFog.7 mph100%29.86 "Hg1 mi
5:50 AM61 °FFog.7 mph100%29.86 "Hg1 mi
5:20 AM61 °FFog.6 mph94%29.86 "Hg1 mi
4:50 AM61 °FFog.7 mph94%29.86 "Hg2 mi
4:20 AM61 °FFog.7 mph100%29.86 "Hg2 mi
3:50 AM61 °FFog.8 mph100%29.86 "Hg1 mi
3:20 AM61 °FFog.6 mph100%29.86 "Hg1 mi
2:50 AM61 °FFog.6 mph100%29.86 "Hg0 mi
2:20 AM61 °FFog.5 mph100%29.86 "Hg1 mi
1:50 AM61 °FFog.5 mph100%29.86 "Hg1 mi
1:20 AM61 °FLight rain. Fog.5 mph100%29.86 "Hg1 mi
12:50 AM59 °FFog.3 mph100%29.86 "Hg1 mi
12:20 AM59 °FFog.3 mph100%29.86 "Hg1 mi
11:50 PM
Sep 20
59 °FFog.3 mph100%29.86 "Hg1 mi
11:20 PM61 °FFog.3 mph94%29.89 "Hg2 mi
10:20 PM63 °FFog.2 mph94%29.89 "Hg2 mi
9:50 PM63 °FFog.2 mph94%29.89 "Hg2 mi
9:20 PM63 °FFog.2 mph94%29.89 "Hg2 mi
8:50 PM63 °FFog.1 mph94%29.89 "Hg3 mi
8:20 PM63 °FClear.2 mph94%29.89 "Hg4 mi
7:50 PM63 °FFog.3 mph94%29.89 "Hg4 mi
3:20 PM66 °FPartly sunny.3 mph88%29.89 "Hg4 mi
2:50 PM64 °FPartly sunny.2 mph94%29.92 "Hg4 mi
2:20 PM64 °FLight rain. Fog.1 mph88%29.92 "Hg2 mi
1:50 PM63 °FPartly sunny.1 mph94%29.92 "Hg4 mi
1:20 PM63 °FLow clouds.3 mph94%29.92 "Hg4 mi
12:20 PM63 °FFog.3 mph94%29.92 "Hg3 mi
11:50 AM61 °FDrizzle. Fog.3 mph100%29.92 "Hg3 mi
11:20 AM61 °FFog.3 mph94%29.92 "Hg3 mi
Weather by CustomWeather, © 2014

See weather overviewHow to use our weather pages